HVN2112 VVTS-VVPK

Flight info

Callsign HVN2112
Flight time 0h 51m
Altitude 27000
Route PATMA5N PATMA
Aircraft A320/M-SDE3FGHIRWY/LB1

Departure

Time 2026-04-23 14:32
Airport Tan Son Nhat International Airport (VVTS)

Arrival

Time 2026-04-23 15:23
Airport Pleiku Airport (VVPK)
Time Latitude Longitude Altitude Speed Heading
2026-04-23 14:06 10.81286 106.65412 37 ft 0 kts 159°
2026-04-23 14:22 10.81291 106.65410 17 ft 2 kts 157°
2026-04-23 14:22 10.81306 106.65403 35 ft 2 kts 156°
2026-04-23 14:22 10.81321 106.65396 35 ft 2 kts 153°
2026-04-23 14:23 10.81336 106.65388 36 ft 2 kts 145°
2026-04-23 14:23 10.81348 106.65377 36 ft 2 kts 107°
2026-04-23 14:23 10.81348 106.65363 35 ft 1 kts 70°
2026-04-23 14:23 10.81347 106.65361 34 ft 0 kts 70°
2026-04-23 14:25 10.81349 106.65366 35 ft 3 kts 70°
2026-04-23 14:25 10.81365 106.65411 35 ft 10 kts 70°
2026-04-23 14:26 10.81400 106.65504 37 ft 18 kts 68°
2026-04-23 14:26 10.81447 106.65627 37 ft 19 kts 69°
2026-04-23 14:26 10.81498 106.65757 37 ft 15 kts 68°
2026-04-23 14:26 10.81579 106.65795 37 ft 13 kts
2026-04-23 14:27 10.81662 106.65801 37 ft 11 kts 357°
2026-04-23 14:27 10.81735 106.65793 37 ft 12 kts 10°
2026-04-23 14:27 10.81781 106.65857 35 ft 12 kts 68°
2026-04-23 14:27 10.81819 106.65954 37 ft 17 kts 68°
2026-04-23 14:28 10.81866 106.66084 36 ft 22 kts 69°
2026-04-23 14:28 10.81923 106.66237 37 ft 26 kts 69°
2026-04-23 14:28 10.81990 106.66416 37 ft 28 kts 69°
2026-04-23 14:28 10.82060 106.66603 37 ft 29 kts 70°
2026-04-23 14:29 10.82132 106.66797 36 ft 30 kts 69°
2026-04-23 14:29 10.82201 106.66974 37 ft 16 kts 68°
2026-04-23 14:29 10.82242 106.67012 37 ft 7 kts
2026-04-23 14:29 10.82277 106.67000 37 ft 2 kts 336°
2026-04-23 14:30 10.82286 106.66996 37 ft 1 kts 334°
2026-04-23 14:30 10.82309 106.66977 37 ft 6 kts 317°
2026-04-23 14:30 10.82335 106.66952 36 ft 5 kts 317°
2026-04-23 14:30 10.82356 106.66926 37 ft 4 kts 292°
2026-04-23 14:31 10.82344 106.66882 35 ft 12 kts 246°
2026-04-23 14:31 10.82256 106.66658 36 ft 67 kts 250°
2026-04-23 14:31 10.82011 106.66003 39 ft 128 kts 250°
2026-04-23 14:31 10.81631 106.64998 59 ft 173 kts 246°
2026-04-23 14:32 10.81199 106.63858 650 ft 174 kts 248°
2026-04-23 14:32 10.80747 106.62661 1009 ft 191 kts 246°
2026-04-23 14:32 10.80247 106.61342 1381 ft 209 kts 246°
2026-04-23 14:32 10.79701 106.59901 1784 ft 226 kts 246°
2026-04-23 14:33 10.79117 106.58351 2253 ft 243 kts 247°
2026-04-23 14:33 10.78493 106.56687 2747 ft 260 kts 248°
2026-04-23 14:33 10.77942 106.54909 3453 ft 267 kts 261°
2026-04-23 14:33 10.78041 106.53014 4285 ft 272 kts 285°
2026-04-23 14:34 10.78903 106.51333 5048 ft 276 kts 311°
2026-04-23 14:34 10.80445 106.50163 5773 ft 280 kts 339°
2026-04-23 14:34 10.82347 106.49810 6500 ft 281 kts
2026-04-23 14:34 10.84204 106.50341 7195 ft 280 kts 31°
2026-04-23 14:35 10.85755 106.51556 7896 ft 283 kts 42°
2026-04-23 14:35 10.87255 106.52872 8578 ft 288 kts 41°
2026-04-23 14:35 10.88787 106.54213 9276 ft 292 kts 41°
2026-04-23 14:35 10.90327 106.55561 9951 ft 295 kts 41°
2026-04-23 14:36 10.91918 106.56947 10372 ft 308 kts 41°
2026-04-23 14:36 10.93596 106.58404 10677 ft 325 kts 40°
2026-04-23 14:36 10.95363 106.59937 10935 ft 341 kts 40°
2026-04-23 14:36 10.97173 106.61508 11349 ft 350 kts 40°
2026-04-23 14:37 10.99032 106.63122 11951 ft 353 kts 40°
2026-04-23 14:37 11.00905 106.64748 12569 ft 355 kts 40°
2026-04-23 14:37 11.02791 106.66389 13177 ft 358 kts 40°
2026-04-23 14:37 11.04691 106.68042 13773 ft 361 kts 40°
2026-04-23 14:38 11.06607 106.69709 14264 ft 364 kts 40°
2026-04-23 14:38 11.08541 106.71392 14758 ft 368 kts 40°
2026-04-23 14:38 11.10493 106.73093 15219 ft 371 kts 40°
2026-04-23 14:38 11.12463 106.74811 15700 ft 375 kts 40°
2026-04-23 14:39 11.14459 106.76551 16163 ft 379 kts 40°
2026-04-23 14:39 11.16473 106.78306 16623 ft 383 kts 40°
2026-04-23 14:39 11.18505 106.80077 17074 ft 387 kts 40°
2026-04-23 14:39 11.20533 106.81846 17500 ft 390 kts 40°
2026-04-23 14:40 11.22632 106.83678 17957 ft 394 kts 40°
2026-04-23 14:40 11.24695 106.85475 18351 ft 398 kts 40°
2026-04-23 14:40 11.26818 106.87325 18738 ft 402 kts 40°
2026-04-23 14:40 11.28941 106.89175 19149 ft 404 kts 40°
2026-04-23 14:41 11.31089 106.91048 19563 ft 407 kts 40°
2026-04-23 14:41 11.33249 106.92931 19982 ft 409 kts 40°
2026-04-23 14:41 11.35418 106.94824 20400 ft 412 kts 41°
2026-04-23 14:41 11.37595 106.96726 20811 ft 414 kts 41°
2026-04-23 14:42 11.39796 106.98648 21221 ft 417 kts 41°
2026-04-23 14:42 11.42000 107.00575 21631 ft 420 kts 41°
2026-04-23 14:42 11.44225 107.02518 22027 ft 422 kts 41°
2026-04-23 14:42 11.46464 107.04476 22409 ft 425 kts 41°
2026-04-23 14:43 11.48717 107.06446 22793 ft 428 kts 41°
2026-04-23 14:43 11.50978 107.08423 23153 ft 430 kts 41°
2026-04-23 14:43 11.53259 107.10418 23506 ft 433 kts 41°
2026-04-23 14:43 11.55547 107.12421 23807 ft 435 kts 41°
2026-04-23 14:44 11.57851 107.14440 24113 ft 437 kts 41°
2026-04-23 14:44 11.60165 107.16467 24415 ft 439 kts 41°
2026-04-23 14:44 11.62484 107.18497 24708 ft 441 kts 41°
2026-04-23 14:44 11.64816 107.20535 25010 ft 442 kts 41°
2026-04-23 14:45 11.67159 107.22583 25306 ft 444 kts 41°
2026-04-23 14:45 11.69477 107.24616 25586 ft 446 kts 41°
2026-04-23 14:45 11.71832 107.26685 25863 ft 447 kts 41°
2026-04-23 14:45 11.74199 107.28762 26145 ft 449 kts 41°
2026-04-23 14:46 11.76574 107.30842 26412 ft 451 kts 41°
2026-04-23 14:46 11.78955 107.32923 26692 ft 452 kts 41°
2026-04-23 14:46 11.81346 107.35015 26873 ft 453 kts 41°
2026-04-23 14:46 11.83706 107.37084 26917 ft 440 kts 41°
2026-04-23 14:47 11.86019 107.39112 26925 ft 438 kts 41°
2026-04-23 14:47 11.88331 107.41143 26925 ft 438 kts 41°
2026-04-23 14:47 11.90641 107.43173 26925 ft 438 kts 41°
2026-04-23 14:47 11.92952 107.45200 26929 ft 438 kts 41°
2026-04-23 14:48 11.95254 107.47221 26931 ft 438 kts 41°
2026-04-23 14:48 11.97575 107.49256 26929 ft 438 kts 41°
2026-04-23 14:48 11.99881 107.51282 26935 ft 438 kts 41°
2026-04-23 14:48 12.02182 107.53310 26937 ft 438 kts 41°
2026-04-23 14:49 12.04461 107.55319 26938 ft 438 kts 41°
2026-04-23 14:49 12.06798 107.57377 26939 ft 438 kts 41°
2026-04-23 14:49 12.09081 107.59383 26941 ft 438 kts 41°
2026-04-23 14:49 12.11390 107.61410 26939 ft 438 kts 41°
2026-04-23 14:50 12.13703 107.63438 26942 ft 438 kts 41°
2026-04-23 14:50 12.16014 107.65466 26939 ft 438 kts 41°
2026-04-23 14:50 12.18326 107.67498 26938 ft 438 kts 41°
2026-04-23 14:50 12.20635 107.69530 26939 ft 438 kts 41°
2026-04-23 14:51 12.22945 107.71564 26938 ft 438 kts 41°
2026-04-23 14:51 12.25250 107.73595 26936 ft 437 kts 41°
2026-04-23 14:51 12.27554 107.75628 26933 ft 437 kts 41°
2026-04-23 14:51 12.29852 107.77655 26930 ft 437 kts 41°
2026-04-23 14:52 12.32310 107.79490 26923 ft 438 kts 31°
2026-04-23 14:52 12.35051 107.80847 26922 ft 438 kts 20°
2026-04-23 14:52 12.37983 107.81681 26917 ft 438 kts 10°
2026-04-23 14:52 12.40998 107.82155 26913 ft 438 kts
2026-04-23 14:53 12.44010 107.82624 26914 ft 438 kts
2026-04-23 14:53 12.46982 107.83097 26913 ft 438 kts
2026-04-23 14:53 12.50035 107.83587 26913 ft 438 kts
2026-04-23 14:53 12.52999 107.84066 26918 ft 437 kts
2026-04-23 14:54 12.56002 107.84550 26915 ft 437 kts
2026-04-23 14:54 12.59004 107.85031 26907 ft 437 kts
2026-04-23 14:54 12.62002 107.85509 26904 ft 436 kts
2026-04-23 14:54 12.65008 107.85984 26901 ft 436 kts
2026-04-23 14:55 12.68005 107.86459 26899 ft 436 kts
2026-04-23 14:55 12.71002 107.86936 26896 ft 436 kts
2026-04-23 14:55 12.74000 107.87415 26890 ft 436 kts
2026-04-23 14:55 12.76999 107.87896 26893 ft 436 kts
2026-04-23 14:56 12.79991 107.88374 26527 ft 435 kts
2026-04-23 14:56 12.82972 107.88843 25916 ft 433 kts
2026-04-23 14:56 12.85942 107.89283 25323 ft 430 kts
2026-04-23 14:56 12.88904 107.89716 24735 ft 428 kts
2026-04-23 14:57 12.91847 107.90156 24160 ft 426 kts
2026-04-23 14:57 12.94775 107.90607 23600 ft 424 kts
2026-04-23 14:57 12.97689 107.91068 22958 ft 423 kts
2026-04-23 14:57 13.00553 107.91528 22312 ft 422 kts
2026-04-23 14:58 13.03446 107.91996 21657 ft 421 kts
2026-04-23 14:58 13.06332 107.92462 21025 ft 418 kts
2026-04-23 14:58 13.09156 107.92917 20402 ft 404 kts
2026-04-23 14:58 13.11892 107.93355 19804 ft 391 kts
2026-04-23 14:59 13.14542 107.93778 19204 ft 379 kts
2026-04-23 14:59 13.17098 107.94186 18762 ft 365 kts
2026-04-23 14:59 13.18740 107.94458 18468 ft 357 kts
2026-04-23 14:59 13.21154 107.94879 17993 ft 348 kts
2026-04-23 15:00 13.23544 107.95299 17450 ft 348 kts
2026-04-23 15:00 13.25904 107.95704 16949 ft 339 kts
2026-04-23 15:00 13.28207 107.96087 16459 ft 331 kts
2026-04-23 15:00 13.30457 107.96452 15978 ft 325 kts
2026-04-23 15:01 13.32693 107.96809 15503 ft 326 kts
2026-04-23 15:01 13.34945 107.97167 15040 ft 328 kts
2026-04-23 15:01 13.37197 107.97525 14670 ft 327 kts
2026-04-23 15:01 13.39441 107.97882 14359 ft 324 kts
2026-04-23 15:02 13.41633 107.98232 14131 ft 317 kts
2026-04-23 15:02 13.43816 107.98581 13906 ft 315 kts
2026-04-23 15:02 13.45976 107.98927 13693 ft 314 kts
2026-04-23 15:02 13.48135 107.99273 13440 ft 313 kts
2026-04-23 15:03 13.50275 107.99616 13196 ft 311 kts
2026-04-23 15:03 13.52413 107.99959 12940 ft 310 kts
2026-04-23 15:03 13.54539 108.00299 12695 ft 309 kts
2026-04-23 15:03 13.56661 108.00640 12446 ft 307 kts
2026-04-23 15:04 13.58770 108.00978 12206 ft 307 kts
2026-04-23 15:04 13.60873 108.01315 11962 ft 306 kts
2026-04-23 15:04 13.62970 108.01651 11720 ft 305 kts
2026-04-23 15:04 13.65066 108.01988 11475 ft 304 kts
2026-04-23 15:05 13.67154 108.02323 11246 ft 304 kts
2026-04-23 15:05 13.69242 108.02658 11016 ft 303 kts
2026-04-23 15:05 13.71329 108.02928 10782 ft 303 kts
2026-04-23 15:05 13.73428 108.03126 10549 ft 303 kts
2026-04-23 15:06 13.75524 108.03334 10327 ft 302 kts
2026-04-23 15:06 13.77587 108.03578 10093 ft 302 kts
2026-04-23 15:06 13.79672 108.03719 9875 ft 301 kts 354°
2026-04-23 15:06 13.81666 108.03115 9629 ft 300 kts 330°
2026-04-23 15:07 13.83267 108.01775 9379 ft 296 kts 307°
2026-04-23 15:07 13.84229 107.99958 9129 ft 286 kts 285°
2026-04-23 15:07 13.84462 107.97979 8944 ft 274 kts 264°
2026-04-23 15:07 13.83939 107.96178 8903 ft 255 kts 237°
2026-04-23 15:08 13.82828 107.94822 8910 ft 250 kts 219°
2026-04-23 15:08 13.81375 107.93856 8903 ft 249 kts 202°
2026-04-23 15:08 13.79720 107.93366 8889 ft 249 kts 187°
2026-04-23 15:09 13.76281 107.93354 8900 ft 248 kts 176°
2026-04-23 15:09 13.74558 107.93481 8900 ft 248 kts 175°
2026-04-23 15:09 13.72836 107.93618 8885 ft 248 kts 175°
2026-04-23 15:09 13.71113 107.93756 8898 ft 249 kts 175°
2026-04-23 15:10 13.69396 107.93893 8898 ft 249 kts 175°
2026-04-23 15:10 13.67685 107.94205 8895 ft 249 kts 160°
2026-04-23 15:10 13.66165 107.95032 8897 ft 249 kts 141°
2026-04-23 15:10 13.64984 107.96332 8896 ft 250 kts 122°
2026-04-23 15:11 13.64284 107.97969 8894 ft 251 kts 103°
2026-04-23 15:11 13.64149 107.99752 8897 ft 252 kts 83°
2026-04-23 15:11 13.64594 108.01485 8898 ft 252 kts 64°
2026-04-23 15:11 13.65574 108.02976 8890 ft 253 kts 45°
2026-04-23 15:12 13.66956 108.04037 8900 ft 241 kts 26°
2026-04-23 15:12 13.68486 108.04581 8899 ft 228 kts 13°
2026-04-23 15:12 13.70057 108.04824 8904 ft 229 kts
2026-04-23 15:12 13.71654 108.04816 8908 ft 230 kts 357°
2026-04-23 15:13 13.73252 108.04726 8905 ft 230 kts 355°
2026-04-23 15:13 13.74831 108.04609 8905 ft 230 kts 355°
2026-04-23 15:13 13.76429 108.04486 8900 ft 231 kts 355°
2026-04-23 15:13 13.78031 108.04362 8908 ft 231 kts 355°
2026-04-23 15:14 13.79601 108.04105 8922 ft 229 kts 336°
2026-04-23 15:14 13.80859 108.03131 8912 ft 228 kts 306°
2026-04-23 15:14 13.81627 108.01715 8911 ft 227 kts 288°
2026-04-23 15:14 13.81912 108.00131 8910 ft 226 kts 273°
2026-04-23 15:15 13.82088 107.98521 8912 ft 227 kts 279°
2026-04-23 15:15 13.82482 107.96973 8940 ft 216 kts 288°
2026-04-23 15:15 13.83031 107.95603 8915 ft 199 kts 295°
2026-04-23 15:15 13.83662 107.94391 8911 ft 191 kts 299°
2026-04-23 15:16 13.84366 107.93228 8909 ft 191 kts 302°
2026-04-23 15:16 13.85110 107.92095 8904 ft 191 kts 303°
2026-04-23 15:16 13.85875 107.90974 8906 ft 191 kts 305°
2026-04-23 15:16 13.86664 107.89869 8868 ft 191 kts 306°
2026-04-23 15:17 13.87474 107.88794 8667 ft 190 kts 310°
2026-04-23 15:17 13.88374 107.87830 8382 ft 189 kts 316°
2026-04-23 15:17 13.89394 107.86987 8106 ft 188 kts 323°
2026-04-23 15:17 13.90472 107.86206 7735 ft 192 kts 324°
2026-04-23 15:18 13.91623 107.85439 7323 ft 196 kts 327°
2026-04-23 15:18 13.92770 107.84746 6915 ft 190 kts 332°
2026-04-23 15:18 13.93975 107.84264 6541 ft 183 kts 342°
2026-04-23 15:18 13.95197 107.83939 6175 ft 180 kts 346°
2026-04-23 15:19 13.96410 107.83680 5789 ft 176 kts 348°
2026-04-23 15:19 13.97615 107.83782 5383 ft 178 kts 26°
2026-04-23 15:19 13.98507 107.84632 5035 ft 175 kts 55°
2026-04-23 15:19 13.99128 107.85706 4677 ft 175 kts 64°
2026-04-23 15:20 13.99615 107.86849 4300 ft 174 kts 69°
2026-04-23 15:20 13.99976 107.88030 4018 ft 167 kts 76°
2026-04-23 15:20 14.00196 107.89176 4041 ft 162 kts 82°
2026-04-23 15:20 14.00327 107.90328 4023 ft 162 kts 87°
2026-04-23 15:21 14.00379 107.91487 3994 ft 162 kts 89°
2026-04-23 15:21 14.00415 107.92643 3808 ft 161 kts 89°
2026-04-23 15:21 14.00446 107.93790 3606 ft 159 kts 89°
2026-04-23 15:21 14.00476 107.94923 3412 ft 158 kts 89°
2026-04-23 15:22 14.00505 107.96050 3213 ft 157 kts 89°
2026-04-23 15:22 14.00533 107.97163 2997 ft 157 kts 89°
2026-04-23 15:22 14.00553 107.98279 2841 ft 156 kts 91°
2026-04-23 15:22 14.00489 107.99378 2706 ft 153 kts 94°
2026-04-23 15:23 14.00460 108.00474 2542 ft 152 kts 91°
2026-04-23 15:23 14.00445 108.01540 2436 ft 139 kts 85°
2026-04-23 15:23 14.00434 108.02205 2420 ft 34 kts 91°
2026-04-23 15:23 14.00431 108.02427 2417 ft 24 kts 89°
2026-04-23 15:24 14.00438 108.02527 2416 ft 6 kts 144°
2026-04-23 15:24 14.00433 108.02523 2416 ft 1 kts 221°